Location: Buckeye Ditch
(40.9104°N, 122.9517°W)
Time: 13:28:24
(UTC+00:00)

Tiros 1 despin weight - Pass Details

Date: 27 May 2025
Orbit: 563 x 601 km, 48.2° (Epoch: 22 June)

Event Time Altitude Azimuth Distance (km) Brightness Sun altitude
Rises 12:02:55 0° 297° (WNW) 2,822 ? -7.4°
Reaches altitude 10° 12:05:17 10° 305° (NW) 1,926 ? -7.1°
Maximum altitude 12:09:30 42° 17° (NNE) 857 ? -6.4°
Drops below altitude 10° 12:13:44 10° 88° (E) 1,937 ? -5.8°
Sets 12:16:08 0° 96° (E) 2,840 ? -5.4°
